Change the Weather History Date:

Thursday, July 4, 2013

  Actual Average Record
Temperature  
Mean Temperature 52 °F -  
Max Temperature 57 °F 64 °F 86 °F (1986)
Min Temperature 48 °F 48 °F 33 °F (2002)
Degree Days  
Heating Degree Days 12    
Growing Degree Days 2 (Base 50)    
Moisture  
Dew Point 45 °F    
Average Humidity 81    
Maximum Humidity 93    
Minimum Humidity 63    
Precipitation  
Precipitation 0.51 in - - ()
Sea Level Pressure  
Sea Level Pressure 29.83 in    
Wind  
Wind Speed 3 mph (SE)    
Max Wind Speed 10 mph    
Max Gust Speed 20 mph    
Visibility 10 miles    
Events      
Averages and records for this station are not official NWS values.
T = Trace of Precipitation, MM = Missing Value Source: NWS Daily Summary

Daily Weather History Graph

Daily Weather History Graph

Search for Another Location

Airport or City:

Trip Planner

Search our weather history database for the weather conditions in past years. The results will help you decide how hot, cold, wet, or windy it might be!

Date:

Astronomy

Jul. 04, 2013 Rise Set
Actual Time 3:08 AM AKDT 2:03 AM AKDT
Civil Twilight Sun does not rise Sun does not rise
Nautical Twilight Sun does not rise Sun does not rise
Astronomical Twilight Sun does not rise Sun does not rise
Moon 1:58 AM AKDT (7/4) 10:07 PM AKDT (7/4)
Length of Visible Light 24h 00m
Length of Day
22h 55m
Waning Crescent, 10% of the Moon is Illuminated
Jul 4
Waning Crescent
Jul 7
New
Jul 15
First Quarter
Jul 22
Full
Jul 29
Last Quarter

Hourly Weather History & Observations

Time (AKDT) Temp. Dew Point Humidity Pressure Visibility Wind Dir Wind Speed Gust Speed Precip Events Conditions
12:16 AM 53.6 °F 42.8 °F 67% 29.84 in 10.0 mi SSE 3.5 mph - N/A   Overcast
12:36 AM 53.6 °F 42.8 °F 67% 29.84 in 10.0 mi Calm Calm - N/A   Overcast
12:56 AM 51.8 °F 42.8 °F 71% 29.84 in 10.0 mi East 4.6 mph - N/A   Overcast
1:16 AM 50.0 °F 44.6 °F 82% 29.84 in 9.0 mi Calm Calm - N/A   Overcast
1:36 AM 50.0 °F 44.6 °F 82% 29.84 in 10.0 mi Calm Calm - N/A   Overcast
1:56 AM 50.0 °F 44.6 °F 82% 29.85 in 10.0 mi Calm Calm - 0.01 in   Overcast
2:16 AM 48.2 °F 44.6 °F 87% 29.85 in 10.0 mi Calm Calm - N/A   Overcast
2:36 AM 48.2 °F 44.6 °F 87% 29.85 in 10.0 mi Calm Calm - N/A   Overcast
2:56 AM 48.2 °F 44.6 °F 87% 29.84 in 10.0 mi Calm Calm - N/A   Overcast
3:16 AM 48.2 °F 44.6 °F 87% 29.84 in 10.0 mi Calm Calm - N/A   Overcast
3:36 AM 48.2 °F 44.6 °F 87% 29.84 in 10.0 mi Calm Calm - N/A   Overcast
3:56 AM 48.2 °F 44.6 °F 87% 29.84 in 10.0 mi Calm Calm - N/A   Overcast
4:16 AM 48.2 °F 44.6 °F 87% 29.84 in 10.0 mi East 3.5 mph - N/A   Overcast
4:36 AM 48.2 °F 44.6 °F 87% 29.84 in 10.0 mi Calm Calm - 0.01 in   Overcast
4:56 AM 48.2 °F 44.6 °F 87% 29.84 in 10.0 mi Calm Calm - 0.01 in   Overcast
5:16 AM 48.2 °F 44.6 °F 87% 29.84 in 10.0 mi NE 4.6 mph - 0.01 in   Overcast
5:36 AM 48.2 °F 44.6 °F 87% 29.83 in 10.0 mi NE 3.5 mph - 0.02 in   Overcast
5:56 AM 48.2 °F 44.6 °F 87% 29.83 in 10.0 mi NE 3.5 mph - 0.03 in   Overcast
6:16 AM 48.2 °F 44.6 °F 87% 29.83 in 10.0 mi NE 4.6 mph - N/A   Overcast
6:36 AM 48.2 °F 44.6 °F 87% 29.83 in 10.0 mi Calm Calm - N/A   Overcast
6:56 AM 50.0 °F 44.6 °F 82% 29.83 in 10.0 mi ENE 4.6 mph - 0.01 in   Overcast
7:16 AM 50.0 °F 44.6 °F 82% 29.83 in 10.0 mi East 5.8 mph - 0.01 in   Overcast
7:36 AM 50.0 °F 44.6 °F 82% 29.83 in 9.0 mi East 3.5 mph - 0.03 in   Overcast
7:56 AM 48.2 °F 44.6 °F 87% 29.83 in 10.0 mi East 3.5 mph - 0.04 in   Overcast
8:16 AM 48.2 °F 44.6 °F 87% 29.83 in 10.0 mi East 4.6 mph - 0.01 in   Overcast
8:36 AM 50.0 °F 46.4 °F 87% 29.82 in 10.0 mi East 4.6 mph - 0.01 in   Overcast
8:56 AM 50.0 °F 46.4 °F 87% 29.82 in 10.0 mi East 3.5 mph - 0.02 in   Overcast
9:16 AM 50.0 °F 46.4 °F 87% 29.82 in 10.0 mi Calm Calm - N/A   Overcast
9:36 AM 50.0 °F 46.4 °F 87% 29.82 in 10.0 mi East 3.5 mph - N/A   Overcast
9:56 AM 51.8 °F 46.4 °F 82% 29.82 in 10.0 mi East 3.5 mph - N/A   Overcast
10:16 AM 51.8 °F 46.4 °F 82% 29.82 in 10.0 mi East 4.6 mph - 0.01 in   Overcast
10:36 AM 51.8 °F 46.4 °F 82% 29.82 in 10.0 mi East 4.6 mph - 0.01 in   Overcast
10:56 AM 51.8 °F 46.4 °F 82% 29.82 in 10.0 mi East 3.5 mph - 0.02 in   Overcast
11:16 AM 51.8 °F 46.4 °F 82% 29.82 in 10.0 mi East 3.5 mph - 0.02 in   Overcast
11:36 AM 51.8 °F 46.4 °F 82% 29.82 in 10.0 mi ESE 4.6 mph - 0.04 in   Overcast
11:56 AM 51.8 °F 48.2 °F 88% 29.82 in 10.0 mi ESE 3.5 mph - 0.05 in   Overcast
12:16 PM 51.8 °F 48.2 °F 88% 29.82 in 10.0 mi ESE 5.8 mph - N/A   Overcast
12:36 PM 53.6 °F 48.2 °F 82% 29.81 in 10.0 mi ESE 5.8 mph - N/A   Overcast
12:56 PM 53.6 °F 48.2 °F 82% 29.82 in 10.0 mi SE 5.8 mph - N/A   Overcast
1:16 PM 53.6 °F 48.2 °F 82% 29.82 in 10.0 mi SE 5.8 mph - 0.01 in   Overcast
1:36 PM 53.6 °F 48.2 °F 82% 29.82 in 10.0 mi SSE 4.6 mph - 0.02 in   Overcast
1:56 PM 53.6 °F 48.2 °F 82% 29.82 in 8.0 mi SE 4.6 mph - 0.04 in   Mostly Cloudy
2:16 PM 53.6 °F 48.2 °F 82% 29.82 in 10.0 mi SSE 6.9 mph - 0.01 in   Overcast
2:36 PM 55.4 °F 48.2 °F 77% 29.82 in 10.0 mi ESE 5.8 mph - 0.01 in   Overcast
2:56 PM 55.4 °F 48.2 °F 77% 29.81 in 10.0 mi SE 8.1 mph - 0.01 in   Overcast
3:16 PM 55.4 °F 46.4 °F 72% 29.81 in 10.0 mi SSE 10.4 mph 16.1 mph N/A   Overcast
3:36 PM 55.4 °F 46.4 °F 72% 29.81 in 10.0 mi SE 10.4 mph 16.1 mph N/A   Overcast
3:56 PM 55.4 °F 46.4 °F 72% 29.81 in 10.0 mi SSE 6.9 mph 17.3 mph N/A   Overcast
4:16 PM 57.2 °F 44.6 °F 63% 29.80 in 10.0 mi SSE 9.2 mph 19.6 mph N/A   Mostly Cloudy
4:36 PM 57.2 °F 46.4 °F 67% 29.80 in 10.0 mi SSE 9.2 mph 17.3 mph N/A   Overcast
4:56 PM 57.2 °F 44.6 °F 63% 29.80 in 10.0 mi SE 8.1 mph 16.1 mph N/A   Mostly Cloudy
5:16 PM 57.2 °F 44.6 °F 63% 29.81 in 10.0 mi SSE 8.1 mph - N/A   Overcast
5:36 PM 55.4 °F 44.6 °F 67% 29.81 in 10.0 mi SSE 9.2 mph 17.3 mph N/A   Overcast
5:56 PM 55.4 °F 44.6 °F 67% 29.81 in 10.0 mi SSE 6.9 mph 17.3 mph N/A   Overcast
6:16 PM 53.6 °F 44.6 °F 72% 29.82 in 10.0 mi SSE 9.2 mph - N/A   Overcast
6:36 PM 53.6 °F 44.6 °F 72% 29.82 in 10.0 mi SSE 8.1 mph - N/A   Overcast
6:56 PM 55.4 °F 46.4 °F 72% 29.82 in 10.0 mi SSE 8.1 mph - N/A   Overcast
7:16 PM 55.4 °F 44.6 °F 67% 29.83 in 10.0 mi SE 4.6 mph - N/A   Overcast
7:36 PM 55.4 °F 46.4 °F 72% 29.83 in 10.0 mi SE 5.8 mph - N/A   Overcast
7:56 PM 53.6 °F 46.4 °F 77% 29.83 in 10.0 mi SSE 4.6 mph - N/A   Overcast
8:16 PM 50.0 °F 44.6 °F 82% 29.85 in 4.0 mi SSW 3.5 mph 18.4 mph 0.22 in   Mostly Cloudy
8:36 PM 50.0 °F 44.6 °F 82% 29.85 in 8.0 mi SSE 4.6 mph - 0.23 in   Overcast
8:56 PM 48.2 °F 44.6 °F 87% 29.86 in 8.0 mi SSW 3.5 mph - 0.26 in   Overcast
9:16 PM 50.0 °F 44.6 °F 82% 29.86 in 10.0 mi SW 3.5 mph - N/A   Overcast
9:36 PM 50.0 °F 44.6 °F 82% 29.86 in 10.0 mi Calm Calm - N/A   Scattered Clouds
9:56 PM 50.0 °F 44.6 °F 82% 29.87 in 10.0 mi SSW 3.5 mph - N/A   Mostly Cloudy
10:16 PM 48.2 °F 44.6 °F 87% 29.87 in 10.0 mi SW 3.5 mph - 0.01 in   Overcast
10:36 PM 48.2 °F 44.6 °F 87% 29.87 in 10.0 mi Calm Calm - 0.01 in   Overcast
10:56 PM 48.2 °F 44.6 °F 87% 29.88 in 10.0 mi Calm Calm - 0.01 in   Overcast
11:16 PM 48.2 °F 44.6 °F 87% 29.88 in 10.0 mi Calm Calm - N/A   Overcast
11:36 PM 50.0 °F 46.4 °F 87% 29.88 in 10.0 mi Calm Calm - N/A   Overcast
11:56 PM 48.2 °F 46.4 °F 93% 29.89 in 10.0 mi Calm Calm - N/A   Overcast